Weather History for Cartersville, GA

Change the Weather History Date:

Monday, December 31, 2012

  Actual Average Record
Temperature  
Mean Temperature 39 °F 41 °F  
Max Temperature 52 °F 51 °F 66 °F (2006)
Min Temperature 26 °F 30 °F 17 °F (2000)
Degree Days  
Heating Degree Days 26 24  
Month to date heating degree days 693  
Since 1 July heating degree days 1302  
Moisture  
Dew Point 29 °F    
Average Humidity 67    
Maximum Humidity 92    
Minimum Humidity 41    
Precipitation  
Precipitation 0.00 in 0.10 in 1.74 in (1952)
Month to date precipitation 4.24  
Year to date precipitation 49.93  
Snow  
Snow 0.00 in - - ()
Month to date snowfall  
Since 1 July snowfall  
Snow Depth -    
Sea Level Pressure  
Sea Level Pressure 30.30 in    
Wind  
Wind Speed 1 mph (SE)    
Max Wind Speed 5 mph    
Max Gust Speed -    
Visibility 10 miles    
Events      
T = Trace of Precipitation, MM = Missing Value Source: NWS Daily Summary

Daily Weather History Graph

Daily Weather History Graph

Search for Another Location

Airport:

Trip Planner

Search our weather history database for the weather conditions in past years. The results will help you decide how hot, cold, wet, or windy it might be!

Date:

Astronomy

Dec. 31, 2012 Rise Set
Actual Time 7:45 AM EST 5:40 PM EST
Civil Twilight 7:17 AM EST 6:08 PM EST
Nautical Twilight 6:46 AM EST 6:39 PM EST
Astronomical Twilight 6:15 AM EST 7:09 PM EST
Moon 9:00 PM EST (12/31) 9:34 AM EST (12/31)
Length of Visible Light 10h 50m
Length of Day
9h 55m
Waning Gibbous, 90% of the Moon is Illuminated
Dec 31
Waning Gibbous
Jan 4
Last Quarter
Jan 11
New
Jan 18
First Quarter
Jan 26
Full

Hourly Weather History & Observations

Time (EST) Temp. Windchill Dew Point Humidity Pressure Visibility Wind Dir Wind Speed Gust Speed Precip Events Conditions
12:53 AM 26.1 °F - 24.1 °F 92% 30.38 in 9.0 mi Calm Calm - N/A   Clear
1:53 AM 27.0 °F - 25.0 °F 92% 30.40 in 8.0 mi Calm Calm - N/A   Clear
3:53 AM 28.0 °F - 26.1 °F 92% 30.40 in 10.0 mi Calm Calm - N/A   Clear
4:53 AM 28.9 °F - 26.1 °F 89% 30.39 in 10.0 mi Calm Calm - N/A   Clear
5:53 AM 30.0 °F - 27.0 °F 88% 30.39 in 10.0 mi Calm Calm - N/A   Clear
6:53 AM 28.0 °F - 26.1 °F 92% 30.40 in 9.0 mi Calm Calm - N/A   Clear
7:53 AM 28.9 °F 25.2 °F 27.0 °F 92% 30.38 in 8.0 mi East 3.5 mph - N/A   Clear
8:53 AM 33.1 °F - 28.0 °F 82% 30.39 in 9.0 mi Calm Calm - N/A   Clear
9:53 AM 37.0 °F - 28.0 °F 70% 30.39 in 10.0 mi Calm Calm - N/A   Clear
10:53 AM 43.0 °F 40.3 °F 28.0 °F 56% 30.38 in 10.0 mi Variable 4.6 mph - N/A   Clear
11:53 AM 46.9 °F - 28.0 °F 48% 30.34 in 10.0 mi Variable 3.5 mph - N/A   Clear
12:53 PM 50.0 °F - 28.0 °F 43% 30.31 in 10.0 mi Calm Calm - N/A   Clear
1:53 PM 51.1 °F - 28.9 °F 43% 30.26 in 10.0 mi North 3.5 mph - N/A   Overcast
2:53 PM 52.0 °F - 28.9 °F 41% 30.24 in 10.0 mi Calm Calm - N/A   Overcast
3:53 PM 51.1 °F - 28.9 °F 43% 30.24 in 10.0 mi Calm Calm - N/A   Overcast
4:53 PM 50.0 °F - 36.0 °F 59% 30.23 in 10.0 mi SSE 3.5 mph - N/A   Overcast
5:53 PM 48.9 °F - 30.9 °F 50% 30.22 in 10.0 mi Calm Calm - N/A   Overcast
6:53 PM 48.9 °F - 30.0 °F 48% 30.21 in 10.0 mi South 4.6 mph - N/A   Overcast
7:53 PM 48.9 °F - 30.9 °F 50% 30.22 in 10.0 mi Calm Calm - N/A   Overcast
9:53 PM 46.9 °F - 36.0 °F 66% 30.18 in 10.0 mi Calm Calm - N/A   Overcast
10:53 PM 46.9 °F - 35.1 °F 63% 30.16 in 10.0 mi Calm Calm - N/A   Overcast
11:53 PM 46.0 °F - 36.0 °F 68% 30.13 in 10.0 mi Calm Calm - N/A   Overcast